EDT,Max TemperatureF,Mean TemperatureF,Min TemperatureF,Max Dew PointF,MeanDew PointF,Min DewpointF,Max Humidity, Mean Humidity, Min Humidity, Max Sea Level PressureIn, Mean Sea Level PressureIn, Min Sea Level PressureIn, Max VisibilityMiles, Mean VisibilityMiles, Min VisibilityMiles, Max Wind SpeedMPH, Mean Wind SpeedMPH, Max Gust SpeedMPH,PrecipitationIn, CloudCover, Events, WindDirDegrees
2012-10-1,55,53,50,57,55,52,100,100,100,29.98,29.96,29.93,10,6,2,9,3,16,0.37,7,Rain,90
2012-10-2,71,63,54,70,63,57,100,97,93,30.05,29.94,29.89,10,8,0,8,5,,0.28,7,Fog-Rain,94
2012-10-3,76,67,57,70,64,61,100,85,69,30.24,30.15,30.04,10,9,2,6,1,,T,2,Rain,192
2012-10-4,73,62,50,64,59,52,100,77,53,30.31,30.27,30.24,10,10,5,10,3,16,T,1,Rain,290
2012-10-5,75,60,45,61,54,46,100,75,50,30.29,30.20,30.09,10,8,0,6,1,,0.00,1,Fog,273
2012-10-6,66,56,46,63,53,46,100,88,75,30.10,30.04,29.99,10,8,2,15,4,22,0.00,3,,296
2012-10-7,48,43,37,48,45,39,100,90,80,30.20,30.11,30.06,10,8,2,7,3,,0.45,6,Rain,24
2012-10-8,42,39,35,45,42,37,100,96,92,30.28,30.21,30.18,10,7,2,7,2,,0.08,7,Rain,78
2012-10-9,55,47,39,52,47,43,100,89,77,30.21,30.15,30.10,10,9,2,6,1,,T,8,Rain,120
2012-10-10,60,50,40,52,48,41,100,86,72,30.19,30.08,30.03,10,8,0,12,6,21,0.00,5,Fog,286
2012-10-11,66,50,33,43,39,34,100,69,37,30.33,30.26,30.20,10,10,7,7,2,,0.00,0,,260
2012-10-12,65,52,38,45,43,41,100,70,40,30.40,30.28,30.22,10,10,10,14,5,20,0.00,0,,300
2012-10-13,62,48,33,46,42,36,100,76,51,30.50,30.42,30.34,10,10,5,9,3,9,0.00,0,,149
2012-10-14,70,55,39,59,51,41,100,81,61,30.33,30.20,30.04,10,10,5,9,3,17,0.00,1,,195
2012-10-15,68,58,47,63,54,39,100,76,52,30.03,29.90,29.80,10,10,5,18,8,28,0.21,5,Rain,267
2012-10-16,63,51,39,45,42,37,96,68,39,30.00,29.96,29.92,10,10,10,16,5,21,0.00,1,,291
2012-10-17,67,50,33,48,43,36,100,71,42,30.04,29.97,29.93,10,10,5,12,3,16,0.00,0,,184
2012-10-18,66,54,42,59,54,46,97,83,68,29.93,29.88,29.81,10,10,10,12,5,22,0.00,4,Thunderstorm,181
2012-10-19,66,54,41,55,45,36,100,65,30,29.82,29.78,29.70,10,10,2,7,3,17,0.00,2,,226
2012-10-20,55,46,36,45,42,39,100,79,57,30.02,29.88,29.78,10,10,5,12,4,20,0.00,4,,287
2012-10-21,62,48,33,45,41,36,100,72,43,30.20,30.14,30.03,10,10,7,10,3,16,0.00,0,,283
2012-10-22,74,55,35,52,47,37,100,72,43,30.28,30.23,30.19,10,10,5,5,1,,0.00,0,,273
2012-10-23,77,59,40,55,51,43,100,72,43,30.25,30.20,30.14,10,8,0,6,1,,0.00,0,Fog,288
2012-10-24,78,61,44,57,51,46,100,67,33,30.26,30.21,30.16,10,9,5,5,1,,0.00,0,,261
2012-10-25,77,60,42,57,51,46,100,69,37,30.24,30.20,30.16,10,10,3,9,3,16,0.00,0,,139
2012-10-26,73,60,46,61,57,52,100,79,57,30.22,30.14,30.07,10,9,0,12,3,,0.00,2,Fog,102
2012-10-27,63,56,49,63,58,52,100,92,84,30.06,29.95,29.87,10,8,2,8,4,,0.06,8,,21
2012-10-28,54,46,38,52,47,41,100,92,83,29.90,29.80,29.74,10,10,7,10,7,17,0.04,8,Rain,292
2012-10-29,38,35,32,39,37,34,100,95,89,29.76,29.59,29.29,10,7,1,20,12,45,0.17,8,Rain-Snow,288
2012-10-30,36,33,30,34,32,30,96,86,76,29.57,29.38,29.25,10,8,2,28,16,40,0.06,8,Snow,286
2012-10-31,41,38,35,37,35,34,85,78,70,29.76,29.66,29.57,10,10,10,15,11,23,T,8,,285